sat.trackr.live / text

‹ back to catalog

STARLINK-31224

NORAD 59029 · 2024-038G

PAYLOAD ACTIVE UNKNOWN

§ Identity

Operator
Country
US
Launch date
2024-02-25
Launch site
AFETR
Launch vehicle
Mass (kg)
RCS (m²)

Purposes: comms

External: N2YO · Heavens-Above · Gunter

§ Orbital elements

Epoch: 2026-05-24T21:14:43.175616Z

Period
94.27 min
Inclination
43.0014°
Eccentricity
0.0001175
Mean motion
15.27581106 rev/d
Perigee alt
482.2 km
Apogee alt
483.9 km
Semi-major
6,861.2 km
B*
6.7380e-5
RAAN
316.5054°
Arg perigee
270.2075°
Mean anomaly
89.8642°
Rev number
12,641

§ Raw data

STARLINK-312241 59029U 24038G   26144.88522194  .00001593  00000+0  67380-4 0  99932 59029  43.0014 316.5054 0001175 270.2075  89.8642 15.27581106126417

JSON: /api/v1/satellites/59029 · /tle

For live sub-satellite position, see the globe view (requires WebGL).

§ Visibility from observer

Set your observer location to see the next 7 days of passes ≥ 10°. The values pass through the URL so the page stays shareable.

No JS? Fill the form by hand. The geolocation button needs JavaScript.